PBO Station Position Time Series. Reference Frame : NAM14
Format Version,1.1.0
4-character ID,LPSB
Station name,LANE_CNTY_COOP
Begin Date, 2002-07-01
End Date, 2019-10-07
Release Date, 2019-10-08
Reference position, 44.0512285981 North Latitude, -123.0900856728 East Longitude, 117.71162 meters elevation,
Date, North (mm), East (mm), Vertical (mm), North Std. Deviation (mm), East Std. Deviation (mm),              Vertical Std. Deviation (mm), Quality,
2002-07-01,0.00, 0.00, 0.00, 2.42, 1.83, 8.42, repro,
2002-07-02,-1.05, -0.75, -1.78, 2.43, 1.83, 8.39, repro,
2002-07-03,-0.57, -1.58, -3.83, 2.46, 1.91, 8.71, repro,
2002-07-04,-0.72, 0.48, 1.59, 2.36, 1.81, 8.24, repro,
2002-07-05,-2.57, -0.59, -1.01, 2.42, 1.85, 8.29, repro,
2002-07-06,-1.35, -0.48, -2.42, 2.36, 1.76, 8.05, repro,
2002-07-07,-2.32, -0.70, 7.69, 2.38, 1.73, 8.10, repro,
2002-07-08,-2.76, -0.76, 5.72, 2.47, 1.81, 8.56, repro,
2002-07-09,-0.37, -0.38, -11.14, 2.60, 1.97, 9.03, repro,
2002-07-10,-1.96, -0.60, -4.71, 2.32, 1.65, 7.73, repro,
2002-07-11,-1.01, -0.62, -7.14, 2.31, 1.69, 7.85, repro,
2002-07-12,-1.83, -1.16, -12.40, 2.33, 1.64, 7.60, repro,
2002-07-13,-3.29, 0.13, -1.62, 2.29, 1.64, 7.63, repro,
2002-07-14,-3.70, 0.64, -3.79, 2.27, 1.61, 7.50, repro,
2002-07-15,0.04, -2.54, -6.46, 2.41, 1.77, 8.09, repro,
2002-07-16,-1.81, -1.33, -6.56, 2.41, 1.77, 8.06, repro,
2002-07-17,-1.36, -1.74, -9.99, 2.36, 1.72, 7.91, repro,
2002-07-18,-1.35, -1.41, -2.13, 2.44, 1.70, 7.83, repro,
2002-07-19,-1.84, -1.70, -7.37, 2.31, 1.68, 7.66, repro,
2002-07-20,-1.41, -1.06, -11.07, 2.26, 1.61, 7.42, repro,
2002-07-21,-0.33, -1.57, -5.16, 2.26, 1.65, 7.59, repro,
2002-07-22,-1.10, -0.22, -10.15, 2.30, 1.67, 7.68, repro,
2002-07-23,-1.28, -0.26, -2.81, 2.29, 1.65, 7.69, repro,
2002-07-24,-1.24, -0.33, -8.05, 2.28, 1.69, 7.74, repro,
2002-07-25,-2.13, -1.53, -7.66, 2.24, 1.61, 7.47, repro,
2002-07-26,-2.73, -1.31, -6.73, 2.27, 1.66, 7.64, repro,
2002-07-27,-1.26, -2.97, -2.62, 2.28, 1.63, 7.58, repro,
2002-07-28,-0.99, -2.11, -12.55, 2.35, 1.67, 7.73, repro,
2003-01-01,1.03, -2.50, -12.41, 2.89, 2.09, 9.74, repro,
2003-01-02,2.65, -3.51, -6.13, 2.74, 2.14, 9.62, repro,
2003-01-03,0.97, -4.78, -13.87, 2.62, 2.03, 8.91, repro,
2003-01-04,3.40, -2.90, -9.43, 2.72, 2.20, 9.54, repro,
2003-01-05,1.05, -3.26, -18.45, 2.62, 2.10, 8.94, repro,
2003-01-06,0.51, -2.43, -18.07, 2.73, 2.22, 9.69, repro,
2003-01-07,3.57, -2.33, -20.58, 2.70, 2.22, 9.49, repro,
2003-01-08,3.21, -2.53, -7.54, 2.65, 2.13, 9.11, repro,
2003-01-09,0.88, -2.20, -8.57, 2.65, 2.00, 8.60, repro,
2003-01-10,1.74, -2.77, -11.05, 2.60, 2.02, 8.84, repro,
2003-01-11,2.36, -1.40, -12.03, 2.53, 1.92, 8.50, repro,
2003-01-12,3.40, -2.78, -5.38, 2.52, 1.88, 8.37, repro,
2003-01-13,4.21, -1.95, -16.66, 2.54, 1.96, 8.59, repro,
2003-01-14,2.87, -3.93, -15.60, 2.53, 1.89, 8.41, repro,
2003-01-15,1.32, -1.37, -19.27, 2.55, 1.93, 8.61, repro,
2003-01-16,1.37, -0.99, -15.06, 2.55, 1.92, 8.55, repro,
2003-01-17,0.50, -2.66, -19.29, 2.62, 1.93, 8.48, repro,
2003-01-18,1.78, -1.32, -8.57, 2.51, 1.87, 8.31, repro,
2003-01-19,3.91, -1.81, -14.12, 2.61, 1.99, 8.82, repro,
2003-01-20,0.26, -2.26, -8.52, 2.54, 1.93, 8.50, repro,
2003-01-21,0.75, -2.57, -6.97, 2.57, 1.93, 8.60, repro,
2003-01-22,0.33, 0.08, -3.49, 2.56, 1.93, 8.59, repro,
2003-01-23,-1.58, -2.69, -6.16, 2.88, 2.00, 9.23, repro,
2003-01-24,4.33, -1.00, -10.36, 2.63, 1.91, 8.60, repro,
2003-01-25,2.06, -1.24, -18.47, 2.59, 1.96, 8.80, repro,
2003-01-26,-0.42, -1.29, -8.43, 2.59, 1.95, 8.72, repro,
2003-01-27,1.53, -1.02, -20.06, 2.87, 2.05, 9.58, repro,
2003-01-31,-1.03, -1.51, -16.07, 2.85, 2.00, 9.29, repro,
2003-02-01,1.67, -0.10, -10.40, 2.79, 2.18, 9.43, repro,
2003-02-02,2.28, -1.67, -12.44, 2.66, 1.96, 8.70, repro,
2003-02-03,3.39, -2.64, -17.81, 2.89, 2.00, 9.19, repro,
2003-02-04,1.72, -0.98, -7.77, 2.82, 2.05, 9.33, repro,
2003-02-05,0.58, -0.26, -16.13, 2.82, 2.09, 9.58, repro,
2003-02-06,2.00, -0.48, -13.13, 2.85, 2.17, 9.86, repro,
2003-02-07,2.02, -1.56, -10.07, 3.23, 2.35, 10.69, repro,
2003-02-08,3.29, 0.12, -12.95, 2.69, 2.14, 9.19, repro,
2003-02-09,2.32, -0.24, -5.72, 2.85, 2.19, 9.96, repro,
2003-02-10,1.72, -0.26, -6.92, 2.64, 1.97, 8.68, repro,
2003-02-11,1.95, -1.42, -6.55, 2.61, 2.08, 9.29, repro,
2003-02-12,1.64, -0.63, -8.47, 2.62, 2.06, 8.89, repro,
2003-02-13,2.57, -0.63, -5.39, 2.78, 2.12, 9.50, repro,
2003-02-14,3.25, -1.16, -12.20, 2.49, 1.88, 8.50, repro,
2003-02-15,1.82, -1.77, -13.41, 2.66, 1.97, 8.93, repro,
2003-02-16,-0.34, -2.29, -5.80, 2.75, 2.10, 9.46, repro,
2003-02-17,0.98, -4.38, -18.18, 3.16, 2.32, 11.05, repro,
2003-02-18,0.68, -1.85, -9.70, 2.97, 2.28, 10.33, repro,
2003-02-19,2.03, 0.16, -7.23, 2.52, 1.95, 8.89, repro,
2003-02-20,0.91, -0.43, -10.20, 2.48, 1.83, 8.06, repro,
2003-02-21,1.93, -1.34, -1.65, 2.50, 1.81, 8.18, repro,
2003-02-22,1.25, -1.72, -3.95, 2.43, 1.81, 8.39, repro,
2003-02-23,2.38, -0.57, -10.99, 2.47, 1.82, 8.38, repro,
2003-02-24,1.28, -1.34, -6.90, 2.43, 1.79, 8.22, repro,
2003-02-25,2.75, -0.18, -13.33, 2.45, 1.79, 8.25, repro,
2003-02-26,2.32, 0.08, -3.60, 2.44, 1.78, 8.36, repro,
2003-02-27,2.56, -0.06, -5.15, 2.59, 1.84, 8.61, repro,
2003-02-28,1.45, 0.11, -6.07, 2.44, 1.81, 8.09, repro,
2003-03-01,2.20, -0.06, -8.36, 2.67, 1.97, 8.81, repro,
2003-03-02,1.24, -0.87, -19.70, 2.54, 1.88, 8.33, repro,
2003-03-03,2.36, -0.94, -3.23, 2.65, 1.92, 8.67, repro,
2003-03-04,2.52, -0.38, -8.39, 2.53, 1.90, 8.45, repro,
2003-03-05,2.45, -0.46, -7.26, 2.66, 1.94, 8.61, repro,
2003-03-06,2.03, -0.39, -6.11, 2.46, 1.81, 8.13, repro,
2003-03-07,1.15, -2.14, -13.99, 2.57, 1.92, 8.67, repro,
2003-03-08,0.96, -0.51, -12.63, 2.58, 1.91, 8.67, repro,
2003-03-09,0.23, -1.48, -11.66, 2.44, 1.84, 8.13, repro,
2003-03-10,3.07, -0.78, -5.56, 2.55, 1.81, 8.47, repro,
2003-03-11,2.87, 0.08, -15.04, 2.49, 1.89, 8.21, repro,
2003-03-12,1.26, -0.20, -12.40, 2.52, 1.81, 8.38, repro,
2003-03-13,1.06, -1.04, -2.75, 2.62, 1.90, 8.37, repro,
2003-03-14,0.04, 0.24, -6.13, 2.56, 1.78, 8.33, repro,
2003-03-15,0.81, 0.15, 5.39, 2.67, 1.88, 8.84, repro,
2003-03-16,1.06, -1.66, -12.97, 2.51, 1.88, 8.52, repro,
2003-03-17,-0.37, -1.93, -10.09, 2.51, 1.80, 8.51, repro,
2003-03-18,0.89, -0.26, -14.97, 2.48, 1.78, 8.37, repro,
2003-03-19,1.17, -1.19, -7.88, 2.50, 1.77, 8.25, repro,
2003-03-20,1.38, -1.41, 0.03, 2.53, 1.82, 8.39, repro,
2003-03-21,0.92, 0.71, -11.68, 2.48, 1.88, 8.26, repro,
2003-03-22,-0.23, -0.74, -7.75, 2.54, 1.94, 8.56, repro,
2003-03-23,0.23, 0.09, -16.57, 2.45, 1.84, 8.07, repro,
2003-03-24,0.59, -0.23, -11.92, 2.46, 1.85, 8.09, repro,
2003-03-25,2.03, -1.19, -18.94, 2.58, 1.96, 8.71, repro,
2003-03-26,0.69, 1.26, -20.49, 2.43, 1.80, 8.19, repro,
2003-03-27,2.36, -0.14, -17.33, 2.51, 1.92, 8.42, repro,
2003-03-28,2.33, 0.36, -14.74, 2.61, 1.94, 8.97, repro,
2003-03-29,1.38, 0.42, -15.92, 2.53, 1.91, 8.38, repro,
2003-03-30,0.98, 1.24, -21.42, 2.44, 1.82, 8.24, repro,
2003-03-31,0.34, -1.93, -7.50, 2.44, 1.84, 8.10, repro,
2003-04-01,2.18, 0.48, -0.06, 2.50, 1.91, 8.72, repro,
2003-04-02,-0.18, -1.47, -7.97, 2.46, 1.91, 8.35, repro,
2003-04-03,1.37, -0.99, -5.89, 2.49, 1.82, 8.44, repro,
2003-04-04,2.76, -0.65, -12.78, 2.46, 1.80, 8.23, repro,
2003-04-05,2.09, -1.54, -16.86, 2.64, 1.91, 8.61, repro,
2003-04-06,0.35, 0.93, -11.44, 2.51, 1.88, 8.34, repro,
2003-04-07,1.94, 1.30, -5.70, 2.48, 1.83, 8.31, repro,
2003-04-08,1.57, 0.41, -8.99, 2.49, 1.79, 8.15, repro,
2003-04-09,1.96, 1.61, -5.18, 2.43, 1.84, 8.42, repro,
2003-04-10,1.17, 0.04, -11.71, 2.45, 1.84, 8.68, repro,
2003-04-15,-0.52, -1.24, -4.19, 2.63, 1.81, 9.02, repro,
2003-04-16,1.99, 0.32, -8.60, 2.23, 1.62, 7.44, repro,
2003-04-17,2.26, -0.25, -5.23, 2.26, 1.65, 7.57, repro,
2003-04-18,1.49, 0.33, -5.35, 2.25, 1.65, 7.55, repro,
2003-04-19,0.78, -0.11, -10.41, 2.26, 1.62, 7.49, repro,
2003-04-20,-0.49, 1.28, -3.76, 2.24, 1.62, 7.43, repro,
2003-04-21,0.87, -0.72, -7.07, 2.23, 1.60, 7.40, repro,
2003-04-22,0.20, -0.57, -8.15, 2.30, 1.69, 7.67, repro,
2003-04-23,2.31, -0.11, -2.24, 2.32, 1.71, 7.84, repro,
2003-04-24,1.22, -0.79, -10.98, 2.27, 1.66, 7.51, repro,
2003-04-25,1.32, -0.45, -10.58, 2.25, 1.61, 7.44, repro,
2003-04-26,-0.16, -0.10, -9.59, 2.27, 1.65, 7.63, repro,
2003-04-27,1.06, -0.48, -8.06, 2.24, 1.63, 7.48, repro,
2003-04-28,0.50, 0.84, 2.15, 2.28, 1.64, 7.50, repro,
2003-04-29,1.14, 0.70, -7.89, 2.24, 1.62, 7.42, repro,
2003-04-30,-0.39, -0.01, -6.25, 2.30, 1.64, 7.61, repro,
2003-05-11,-0.50, 1.85, -6.80, 2.28, 1.62, 7.41, repro,
2003-05-12,-1.24, 0.31, -4.07, 2.26, 1.61, 7.38, repro,
2003-05-15,1.38, 0.53, -4.94, 2.33, 1.67, 7.78, repro,
2003-05-16,-0.23, -0.02, -8.75, 2.26, 1.61, 7.40, repro,
2003-05-17,-0.99, -0.41, -20.34, 2.30, 1.65, 7.51, repro,
2003-05-18,1.24, 0.28, -12.52, 2.29, 1.64, 7.37, repro,
2003-05-19,-0.17, 0.92, -9.92, 2.32, 1.63, 7.61, repro,
2003-05-20,0.82, 1.53, -12.16, 2.26, 1.62, 7.40, repro,
2003-05-21,0.56, 1.69, -6.49, 2.30, 1.63, 7.65, repro,
2003-05-22,-1.03, 1.44, -5.61, 2.27, 1.62, 7.35, repro,
2003-05-23,-0.83, 0.88, -2.28, 2.26, 1.63, 7.42, repro,
2003-05-24,-0.08, 2.21, -5.66, 2.31, 1.64, 7.65, repro,
2003-05-25,0.55, -0.41, -6.27, 2.78, 2.28, 10.12, repro,
2003-05-26,-0.23, 0.41, -1.26, 2.25, 1.61, 7.40, repro,
2003-05-27,-1.22, 1.05, -10.35, 2.39, 1.73, 8.00, repro,
2003-05-28,-1.26, 0.59, -3.52, 2.34, 1.69, 7.65, repro,
2003-05-29,-1.78, 1.22, 0.81, 2.32, 1.73, 7.77, repro,
2003-05-30,-0.09, -1.10, -4.01, 2.30, 1.73, 7.76, repro,
2003-05-31,-1.24, 1.01, -9.51, 2.64, 1.89, 8.76, repro,
2003-06-01,-0.69, 1.30, -6.28, 2.22, 1.60, 7.30, repro,
2003-06-02,-0.42, 1.63, -9.37, 2.33, 1.64, 7.52, repro,
2003-06-03,-1.49, 1.82, -0.10, 2.39, 1.71, 7.63, repro,
2003-06-04,-0.25, 2.00, -5.55, 2.31, 1.62, 7.46, repro,
2003-06-05,-2.62, 2.34, -3.74, 2.46, 1.73, 7.86, repro,
2003-06-06,-1.01, 1.63, -3.31, 2.33, 1.66, 7.55, repro,
2003-06-07,-0.51, 0.37, -6.89, 2.41, 1.71, 7.63, repro,
2003-06-08,-2.18, 2.00, -9.37, 2.36, 1.67, 7.52, repro,
2003-06-09,-1.66, 1.02, -2.13, 2.37, 1.67, 7.52, repro,
2003-06-10,-0.53, 1.30, -4.34, 2.24, 1.60, 7.37, repro,
2003-06-11,-1.57, 1.25, 1.81, 2.23, 1.59, 7.29, repro,
2003-06-12,1.33, 0.28, -4.32, 2.36, 1.69, 7.68, repro,
2003-06-13,-0.52, 0.48, 3.67, 2.35, 1.68, 7.62, repro,
2003-06-14,0.42, 1.12, -4.44, 2.29, 1.65, 7.50, repro,
2003-06-15,0.36, 1.77, -6.42, 2.26, 1.60, 7.34, repro,
2003-06-16,1.18, 1.67, -6.14, 2.24, 1.60, 7.35, repro,
2003-06-17,-1.34, 1.59, -5.19, 2.25, 1.64, 7.48, repro,
2003-06-18,-0.58, 2.70, -5.15, 2.25, 1.61, 7.36, repro,
2003-06-19,-0.42, 1.59, -0.52, 2.21, 1.59, 7.30, repro,
2003-06-20,-0.26, 0.08, 2.10, 2.32, 1.66, 7.48, repro,
2003-06-21,0.01, 0.87, -3.15, 2.26, 1.63, 7.43, repro,
2003-06-22,0.09, 1.10, -2.99, 2.22, 1.60, 7.30, repro,
2003-06-23,0.05, 0.69, 2.94, 2.24, 1.61, 7.34, repro,
2003-06-24,-0.63, 2.14, -4.95, 2.25, 1.65, 7.46, repro,
2003-06-25,0.20, 1.59, -2.12, 2.33, 1.62, 7.60, repro,
2003-06-26,0.50, 1.71, -4.57, 2.28, 1.63, 7.46, repro,
2003-06-27,0.50, 1.63, -1.22, 2.27, 1.64, 7.50, repro,
2003-06-28,-0.93, 2.25, -1.53, 2.27, 1.64, 7.48, repro,
2003-06-29,-0.27, 0.85, -0.81, 2.27, 1.64, 7.50, repro,
2003-06-30,0.57, 1.28, -5.64, 2.29, 1.63, 7.47, repro,
2003-07-01,-0.67, -0.18, -4.61, 2.37, 1.65, 7.55, repro,
2003-07-02,1.39, 1.27, -6.28, 2.33, 1.67, 7.68, repro,
2003-07-03,0.63, 1.85, -8.03, 2.30, 1.69, 7.73, repro,
2003-07-04,0.67, 0.93, -11.29, 2.30, 1.70, 7.70, repro,
2003-07-05,-0.53, 1.55, -1.57, 2.34, 1.70, 7.66, repro,
2003-07-06,1.32, 1.80, -8.35, 2.28, 1.63, 7.43, repro,
2003-07-07,-0.66, 1.38, 1.82, 2.29, 1.63, 7.50, repro,
2003-07-08,-1.11, 1.37, -6.13, 2.26, 1.63, 7.47, repro,
2003-07-09,1.41, 1.92, -3.48, 2.27, 1.64, 7.49, repro,
2003-07-10,-0.04, 1.33, -1.96, 2.33, 1.70, 7.64, repro,
2003-07-11,0.07, 1.22, -1.24, 2.35, 1.66, 7.56, repro,
2003-07-13,2.73, -0.62, -4.44, 2.31, 1.64, 7.54, repro,
2003-07-14,-0.33, 2.36, -7.09, 2.34, 1.70, 7.76, repro,
2003-07-15,1.52, 0.67, 3.69, 2.41, 1.72, 7.78, repro,
2003-07-16,1.48, 0.40, -2.42, 2.37, 1.68, 7.58, repro,
2003-07-17,0.48, 0.55, -5.95, 2.46, 1.73, 7.79, repro,
2003-07-18,1.29, 1.24, -5.63, 2.37, 1.66, 7.58, repro,
2003-07-19,1.47, 0.28, -13.89, 2.36, 1.69, 7.75, repro,
2003-07-20,-0.48, 0.61, -8.29, 2.35, 1.67, 7.57, repro,
2003-07-21,-0.84, 0.75, -2.90, 2.43, 1.72, 7.70, repro,
2003-07-22,-1.03, -0.19, -10.37, 2.37, 1.68, 7.68, repro,
2003-07-23,2.08, -0.08, -1.52, 2.36, 1.71, 7.78, repro,
2003-07-24,1.36, 0.37, -7.67, 2.43, 1.70, 7.73, repro,
2003-07-25,0.01, -0.04, -6.16, 2.34, 1.70, 7.66, repro,
2003-07-26,1.32, -0.28, -5.59, 2.41, 1.72, 7.70, repro,
2003-07-27,0.24, 0.60, -5.16, 2.34, 1.69, 7.62, repro,
2003-07-28,1.35, 0.92, -3.70, 2.34, 1.70, 7.70, repro,
2003-07-29,-0.71, 1.35, -0.05, 2.46, 1.83, 8.14, repro,
2003-07-30,-0.46, 1.04, -3.22, 2.41, 1.71, 7.75, repro,
2003-07-31,-0.69, -0.28, 0.40, 2.33, 1.69, 7.69, repro,
2003-08-01,-1.54, 0.28, -4.73, 2.74, 2.06, 9.18, repro,
2003-08-07,-0.07, 0.38, -7.94, 2.22, 1.61, 7.27, repro,
2003-08-08,2.34, 0.37, -10.74, 2.25, 1.67, 7.55, repro,
2003-08-09,-0.30, 0.21, -4.24, 2.23, 1.61, 7.33, repro,
2003-08-10,-0.00, 1.18, 2.91, 2.25, 1.62, 7.44, repro,
2003-08-11,-0.86, -0.58, -3.61, 2.22, 1.61, 7.34, repro,
2003-08-12,0.09, 0.60, -1.11, 2.22, 1.61, 7.30, repro,
2003-08-13,1.46, -0.02, -1.45, 2.22, 1.59, 7.25, repro,
2003-08-14,1.28, 1.60, -4.38, 2.22, 1.60, 7.27, repro,
2003-08-15,-0.59, 0.87, -0.02, 2.34, 1.72, 7.78, repro,
2003-08-16,0.69, 1.23, -5.61, 2.24, 1.62, 7.42, repro,
2003-08-17,0.84, 1.73, -1.57, 2.23, 1.62, 7.36, repro,
2003-08-18,2.23, 0.90, -10.25, 2.23, 1.60, 7.34, repro,
2003-08-19,-0.44, 0.93, 5.37, 2.23, 1.60, 7.31, repro,
2003-08-20,1.08, 1.17, 0.22, 2.26, 1.66, 7.53, repro,
2003-08-21,-0.00, -0.08, 3.32, 2.28, 1.66, 7.59, repro,
2003-08-22,0.80, 2.11, 3.23, 2.23, 1.61, 7.38, repro,
2003-08-28,1.31, 0.13, -1.36, 2.36, 1.71, 7.75, repro,
2003-08-29,1.99, 0.20, -3.00, 2.60, 1.97, 8.75, repro,
2003-09-02,1.38, 1.64, -2.19, 2.23, 1.61, 7.35, repro,
2003-09-03,-0.12, 1.49, 5.15, 2.26, 1.65, 7.45, repro,
2003-09-04,0.08, 0.87, 4.74, 2.22, 1.60, 7.26, repro,
2003-09-05,2.11, 1.80, 2.48, 2.23, 1.61, 7.35, repro,
2003-09-06,-0.74, 1.22, 2.59, 2.26, 1.64, 7.40, repro,
2003-09-07,0.65, -0.41, -9.68, 2.25, 1.63, 7.47, repro,
2003-09-08,2.62, -1.01, -3.66, 2.32, 1.71, 7.71, repro,
2003-09-09,2.62, 0.56, 7.13, 2.27, 1.65, 7.59, repro,
2003-09-10,2.55, 1.34, 1.44, 2.27, 1.66, 7.56, repro,
2003-09-11,2.12, 0.17, -0.54, 2.29, 1.66, 7.55, repro,
2003-09-12,3.08, 0.72, 3.26, 2.25, 1.62, 7.37, repro,
2003-09-13,1.27, 0.79, 0.72, 2.26, 1.65, 7.52, repro,
2003-09-14,0.91, 1.03, -0.90, 2.23, 1.61, 7.33, repro,
2003-09-15,1.24, 0.01, 4.04, 2.29, 1.67, 7.54, repro,
2003-09-16,3.68, -0.12, 1.15, 2.31, 1.67, 7.65, repro,
2003-09-17,1.68, 0.42, -0.75, 2.26, 1.61, 7.39, repro,
2003-09-18,0.24, 1.36, 6.38, 2.30, 1.67, 7.50, repro,
2003-09-19,2.31, 0.37, 2.04, 2.32, 1.70, 7.69, repro,
2003-09-20,3.03, 0.33, -2.18, 2.29, 1.67, 7.58, repro,
2003-09-21,1.97, 0.74, -0.43, 2.36, 1.70, 7.73, repro,
2003-09-22,2.18, 0.48, -2.22, 2.39, 1.74, 7.88, repro,
2003-09-23,1.33, 0.84, -4.06, 2.42, 1.77, 8.02, repro,
2003-09-24,1.68, 0.83, -4.86, 2.38, 1.74, 8.02, repro,
2003-09-25,3.31, -0.12, -7.14, 2.39, 1.73, 7.93, repro,
2003-09-26,2.07, 0.84, -3.00, 2.42, 1.77, 8.03, repro,
2003-09-27,1.24, 0.52, 3.87, 2.41, 1.72, 7.86, repro,
2003-09-28,2.82, 1.12, 2.87, 2.38, 1.68, 7.71, repro,
2003-09-29,-0.42, 0.84, 9.41, 2.39, 1.72, 7.84, repro,
2003-09-30,1.40, 0.26, 0.37, 2.38, 1.72, 7.79, repro,
2003-10-01,1.67, 1.18, -12.70, 2.45, 1.78, 8.08, repro,
2003-10-02,2.17, -1.00, -7.33, 2.41, 1.73, 7.85, repro,
2003-10-03,1.41, -1.08, 7.05, 2.40, 1.72, 7.85, repro,
2003-10-04,0.52, -1.25, 12.34, 2.53, 1.83, 8.30, repro,
2003-10-05,1.76, -1.17, 7.39, 2.39, 1.73, 7.86, repro,
2003-10-06,1.39, 0.39, 7.87, 2.40, 1.76, 7.88, repro,
2003-10-07,0.60, 0.37, 9.28, 2.48, 1.80, 8.02, repro,
2003-10-08,1.46, -3.38, 5.29, 2.43, 1.79, 8.04, repro,
2003-10-09,2.03, -1.30, -1.31, 2.44, 1.71, 7.80, repro,
2003-10-10,1.10, 0.34, -0.83, 2.40, 1.72, 7.82, repro,
2003-10-11,2.08, -1.27, 12.17, 2.28, 1.64, 7.45, repro,
2003-10-12,0.19, -0.18, 6.90, 2.41, 1.71, 7.79, repro,
2003-10-13,1.78, 0.25, 1.07, 2.39, 1.74, 7.82, repro,
2003-10-14,3.57, -0.88, 0.36, 2.37, 1.69, 7.72, repro,
2003-10-15,1.28, 0.09, 6.32, 2.34, 1.71, 7.80, repro,
2003-10-16,1.34, -0.96, 4.87, 2.22, 1.62, 7.34, repro,
2003-10-17,2.59, 0.24, -4.00, 2.28, 1.71, 7.67, repro,
2003-10-18,2.24, 0.36, -2.10, 2.22, 1.63, 7.38, repro,
2003-10-19,1.73, -0.51, -0.30, 2.23, 1.63, 7.42, repro,
2003-10-20,0.64, -1.53, 4.34, 2.33, 1.71, 7.77, repro,
2003-10-21,-1.18, -0.14, -3.87, 2.26, 1.64, 7.49, repro,
2003-10-22,0.29, 0.37, 2.37, 2.43, 1.73, 7.98, repro,
2003-10-23,0.69, -1.35, -1.43, 2.30, 1.70, 7.62, repro,
2003-10-24,1.91, 1.56, -4.85, 2.31, 1.68, 7.62, repro,
2003-10-25,0.91, 1.82, -7.29, 2.34, 1.70, 7.64, repro,
2003-10-26,1.26, 0.77, -9.97, 2.31, 1.71, 7.76, repro,
2003-10-27,1.14, 1.03, -3.30, 2.25, 1.65, 7.51, repro,
2003-10-28,1.33, -0.40, 0.32, 2.20, 1.63, 7.40, repro,
2003-10-29,1.09, 0.44, -1.88, 2.41, 1.78, 8.34, repro,
2003-10-30,2.75, -1.06, -12.59, 2.44, 1.78, 8.29, repro,
2003-10-31,1.20, 0.43, -2.99, 2.35, 1.67, 7.66, repro,
2003-11-01,1.60, 0.04, -3.96, 2.29, 1.65, 7.51, repro,
2003-11-02,2.02, -0.36, 3.07, 2.23, 1.65, 7.42, repro,
2003-11-03,3.45, -0.37, -0.64, 2.24, 1.64, 7.52, repro,
2003-11-04,4.14, -0.54, -13.56, 2.30, 1.68, 7.77, repro,
2003-11-05,2.52, 0.03, -4.42, 2.24, 1.65, 7.52, repro,
2003-11-06,2.87, -0.18, -5.65, 2.34, 1.67, 7.59, repro,
2003-11-07,4.12, 0.97, -0.86, 2.28, 1.69, 7.63, repro,
2003-11-08,1.75, 0.80, 2.89, 2.29, 1.72, 7.80, repro,
2003-11-09,2.49, 0.12, 1.14, 2.25, 1.64, 7.45, repro,
2003-11-10,1.53, 0.32, -2.65, 2.29, 1.70, 7.68, repro,
2003-11-11,0.28, -0.02, 4.73, 2.35, 1.76, 8.00, repro,
2003-11-12,2.78, -0.33, -8.30, 2.26, 1.66, 7.58, repro,
2003-11-13,1.38, 0.43, -6.78, 2.41, 1.74, 7.89, repro,
2003-11-14,1.73, -0.60, 0.53, 2.39, 1.74, 7.86, repro,
2003-11-17,0.17, -0.10, -3.12, 2.41, 1.76, 8.06, repro,
2003-11-18,-2.99, -0.84, -1.56, 2.39, 1.75, 7.92, repro,
2003-11-19,0.46, -0.50, 8.68, 2.36, 1.78, 8.00, repro,
2003-11-21,1.67, -0.53, -0.61, 2.34, 1.74, 7.89, repro,
2003-11-22,1.93, 0.93, -4.95, 2.46, 1.95, 8.46, repro,
2003-11-23,2.43, 1.92, -8.17, 2.46, 1.87, 8.38, repro,
2003-11-24,2.55, 0.34, -3.43, 2.25, 1.64, 7.38, repro,
2003-11-25,1.49, 0.38, -2.18, 2.38, 1.74, 8.00, repro,
2003-11-26,1.06, -0.89, 1.93, 2.27, 1.66, 7.52, repro,
2003-11-27,1.79, 1.57, -5.32, 2.34, 1.75, 7.88, repro,
2003-11-28,2.21, 1.58, -0.26, 2.29, 1.67, 7.74, repro,
2003-11-29,2.15, 1.25, 2.76, 2.30, 1.72, 7.69, repro,
2003-11-30,2.28, 0.37, -5.53, 2.23, 1.66, 7.48, repro,
2003-12-01,2.97, 1.33, -4.33, 2.19, 1.62, 7.31, repro,
2003-12-02,1.06, 0.25, -5.27, 2.32, 1.69, 7.61, repro,
2003-12-03,2.09, 1.64, -0.44, 2.31, 1.70, 7.67, repro,
2003-12-04,2.67, 1.79, -12.34, 2.27, 1.70, 7.71, repro,
2003-12-05,1.83, -0.64, 0.32, 2.27, 1.69, 7.69, repro,
2003-12-06,0.71, 0.19, -4.42, 2.26, 1.69, 7.54, repro,
2003-12-07,1.57, -0.76, -1.70, 2.34, 1.76, 7.91, repro,
2003-12-08,1.88, 0.65, -2.15, 2.37, 1.75, 8.00, repro,
2003-12-09,2.85, 0.16, -6.79, 2.44, 1.77, 8.06, repro,
2003-12-10,1.65, -0.08, 2.65, 2.28, 1.70, 7.68, repro,
2003-12-11,1.40, -1.06, -8.79, 2.35, 1.74, 7.91, repro,
2003-12-12,0.53, 0.34, -6.51, 2.25, 1.68, 7.54, repro,
2003-12-13,0.16, -0.20, 7.47, 2.23, 1.67, 7.46, repro,
2003-12-14,1.50, 0.02, -11.04, 2.25, 1.67, 7.52, repro,
2003-12-15,2.42, -0.43, -13.84, 2.23, 1.66, 7.48, repro,
2003-12-16,0.66, -0.75, -3.38, 2.37, 1.74, 7.97, repro,
2003-12-17,0.83, 0.96, -6.45, 2.38, 1.78, 7.98, repro,
2003-12-18,1.79, 2.12, -3.55, 2.36, 1.81, 8.05, repro,
2003-12-19,0.67, -0.58, 3.35, 2.33, 1.73, 7.83, repro,
2003-12-20,2.07, 0.86, -1.90, 2.47, 1.86, 8.47, repro,
2003-12-21,0.95, 1.19, 0.91, 2.48, 1.86, 8.59, repro,
2003-12-22,1.49, 0.44, -7.49, 2.26, 1.68, 7.58, repro,
2003-12-23,2.07, -0.02, -6.92, 2.30, 1.71, 7.68, repro,
2003-12-24,0.13, 0.52, 10.16, 2.44, 1.78, 8.10, repro,
2003-12-25,1.20, 0.42, 2.72, 2.29, 1.70, 7.69, repro,
2003-12-26,1.27, -0.03, -5.20, 2.23, 1.65, 7.49, repro,
2003-12-27,1.66, -1.06, -15.66, 2.23, 1.65, 7.49, repro,
2003-12-28,-0.28, 0.06, -6.71, 2.24, 1.66, 7.53, repro,
2003-12-29,1.03, 0.49, -1.56, 2.25, 1.65, 7.48, repro,
2003-12-30,1.72, -1.92, -14.98, 2.24, 1.64, 7.46, repro,
2003-12-31,2.89, -0.28, -5.59, 2.21, 1.64, 7.45, repro,
2004-01-01,-1.27, 3.72, 3.60, 2.23, 1.69, 7.60, repro,
2004-01-02,3.38, -2.15, -10.24, 2.23, 1.64, 7.37, repro,
2004-01-03,2.59, -0.82, -9.00, 2.34, 1.68, 7.63, repro,
2004-01-04,2.88, -0.45, -12.26, 2.27, 1.69, 7.61, repro,
2004-01-05,1.32, 0.47, -17.56, 2.27, 1.67, 7.59, repro,
2004-01-06,1.10, 0.68, -11.66, 2.49, 1.78, 8.07, repro,
2004-01-07,0.15, -1.64, -5.62, 2.22, 1.65, 7.44, repro,
2004-01-08,2.13, 0.69, -10.61, 2.26, 1.69, 7.65, repro,
2004-01-09,2.49, 0.45, -13.21, 2.28, 1.69, 7.63, repro,
2004-01-10,1.61, 0.41, -9.16, 2.30, 1.67, 7.60, repro,
2004-01-11,0.23, 1.09, -5.83, 2.30, 1.71, 7.68, repro,
2004-01-12,1.63, 0.92, -12.81, 2.31, 1.70, 7.63, repro,
2004-01-13,2.65, 0.22, -15.34, 2.31, 1.68, 7.52, repro,
2004-01-14,1.11, 0.53, -11.90, 2.30, 1.71, 7.62, repro,
2004-01-15,2.04, 0.68, -10.86, 2.26, 1.69, 7.59, repro,
2004-01-16,1.33, 0.99, -10.45, 2.38, 1.69, 7.75, repro,
2004-01-17,1.24, 0.71, -10.83, 2.24, 1.71, 7.64, repro,
2004-01-18,2.27, 1.85, -9.24, 2.32, 1.70, 7.67, repro,
2004-01-19,1.45, 2.49, -9.37, 2.27, 1.78, 7.82, repro,
2004-01-20,1.47, -0.47, -16.41, 2.38, 1.71, 7.68, repro,
2004-01-21,0.91, 0.86, -16.97, 2.33, 1.72, 7.78, repro,
2004-01-22,1.59, 1.86, -13.20, 2.32, 1.78, 7.93, repro,
2004-01-23,1.65, -0.31, -13.52, 2.27, 1.74, 7.85, repro,
2004-01-24,3.11, 0.92, -3.68, 2.32, 1.78, 7.88, repro,
2004-01-25,1.79, 2.71, -9.48, 2.29, 1.79, 7.86, repro,
2004-01-26,1.13, 1.61, -7.86, 2.40, 1.73, 7.78, repro,
2004-01-27,2.13, 0.17, -9.78, 2.46, 1.89, 8.44, repro,
2004-01-28,0.85, 1.12, -10.07, 2.35, 1.81, 7.92, repro,
2004-01-29,-2.21, 0.83, -3.38, 2.28, 1.72, 7.72, repro,
2004-01-30,0.33, 0.54, -6.36, 2.28, 1.71, 7.65, repro,
2004-01-31,1.44, 2.43, -12.40, 2.30, 1.77, 7.82, repro,
2004-02-01,0.33, 1.54, -5.98, 2.22, 1.66, 7.37, repro,
2004-02-02,0.10, 1.21, -7.22, 2.18, 1.61, 7.28, repro,
2004-02-03,0.89, 1.54, -3.20, 2.20, 1.67, 7.45, repro,
2004-02-04,2.20, 1.07, -6.73, 2.22, 1.69, 7.58, repro,
2004-02-05,1.91, 2.81, -10.95, 2.24, 1.74, 7.74, repro,
2004-02-06,0.79, 0.61, -6.84, 2.21, 1.67, 7.50, repro,
2004-02-07,0.11, 2.86, -4.20, 2.27, 1.69, 7.57, repro,
2004-02-08,0.82, 3.74, -9.61, 2.24, 1.70, 7.51, repro,
2004-02-09,1.42, 2.80, -11.93, 2.21, 1.64, 7.43, repro,
2004-02-10,1.07, 2.18, -6.51, 2.32, 1.77, 7.77, repro,
2004-02-11,1.05, 1.65, -9.16, 2.23, 1.68, 7.53, repro,
2004-02-12,0.73, 3.24, -5.71, 2.24, 1.66, 7.58, repro,
2004-02-13,0.63, 2.02, -0.06, 2.23, 1.66, 7.56, repro,
2004-02-14,1.96, 2.10, -8.40, 2.26, 1.67, 7.64, repro,
2004-02-15,1.61, 1.95, -10.27, 2.31, 1.73, 7.89, repro,
2004-02-16,0.19, 0.74, -1.58, 2.68, 2.01, 9.25, repro,
2004-02-17,1.53, 1.58, -4.60, 2.25, 1.65, 7.58, repro,
2004-02-18,1.59, 0.84, -14.53, 2.24, 1.66, 7.59, repro,
2004-02-19,1.50, 2.13, -9.03, 2.29, 1.70, 7.78, repro,
2004-02-20,1.49, 2.03, -9.35, 2.26, 1.66, 7.63, repro,
2004-02-21,0.64, 0.30, -11.57, 2.30, 1.68, 7.47, repro,
2004-02-22,-0.21, 2.22, 1.84, 2.23, 1.64, 7.38, repro,
2004-02-23,0.85, 1.27, -3.25, 2.23, 1.64, 7.37, repro,
2004-02-24,0.54, 1.78, -3.59, 2.24, 1.65, 7.42, repro,
2004-02-25,0.03, 1.51, -0.35, 2.25, 1.65, 7.46, repro,
2004-02-26,-0.96, 0.88, -0.97, 2.27, 1.65, 7.51, repro,
2004-02-27,0.13, 0.88, 0.02, 2.26, 1.64, 7.46, repro,
2004-02-28,1.47, 1.33, -6.63, 2.24, 1.64, 7.38, repro,
2004-02-29,1.51, 2.11, -10.28, 2.25, 1.65, 7.46, repro,
2004-03-01,1.42, 1.37, -8.72, 2.24, 1.65, 7.47, repro,
2004-03-02,1.09, 2.22, -10.14, 2.26, 1.66, 7.52, repro,
2004-03-03,1.24, 1.96, -16.72, 2.65, 1.95, 8.76, repro,
2004-03-04,0.42, 1.21, -13.81, 2.29, 1.70, 7.63, repro,
2004-03-05,0.78, 2.01, -0.02, 2.29, 1.70, 7.63, repro,